User: anonymous   Login
Location: Unspecified
(0.0000°N, 0.0000°E)
Time: 13:21:40
(UTC+00:00)
Language:

USA 264 - Orbit

View from above orbital plane
View from above orbital plane
View from above satellite
View from above satellite

Ground track
Ground track

The orbit data is extracted from the following two-line orbital elements,

1 40964U 15058A   21012.20144829 0.00000000  00000-0  00000-0 0    01
2 40964  63.4355  80.2730 0040500  10.5789 349.4273 13.40817877    08
Epoch (UTC): 12 January 2021 04:50:05
Eccentricity: 0.0040500
inclination: 63.4355°
perigee height: 1076 km
apogee height: 1136 km
right ascension of ascending node: 80.2730°
argument of perigee: 10.5789°
revolutions per day: 13.40817877
mean anomaly at epoch: 349.4273°
orbit number at epoch: 0

The dashed part of the orbit path shows where the satellite is in the earth's shadow,  

DLR